Elizabethtown, NC

5:12 AM EDT on May 23, 2017 (GMT -0400)
Elizabethtown

Weather History for KEYF - May, 2013

Change the Weather History Date:

Sunday, May 26, 2013

  Actual Average (KILM) Record (KILM)
Temperature  
Mean Temperature 63 °F -  
Max Temperature 72 °F 81 °F 98 °F (1953)
Min Temperature 54 °F 62 °F 48 °F (1877)
Degree Days  
Heating Degree Days 2    
Growing Degree Days 13 (Base 50)    
Moisture  
Dew Point 47 °F    
Average Humidity 60    
Maximum Humidity 82    
Minimum Humidity 38    
Precipitation  
Precipitation 0.00 in - - ()
Sea Level Pressure  
Sea Level Pressure 30.22 in    
Wind  
Wind Speed 1 mph (NNW)    
Max Wind Speed 6 mph    
Max Gust Speed -    
Visibility 10 miles    
Events      
Averages and records for this station are not official NWS values.
T = Trace of Precipitation, MM = Missing Value Source: NWS Daily Summary

Daily Weather History Graph

Daily Weather History Graph

Search for Another Location

Airport or City:

Trip Planner

Search our weather history database for the weather conditions in past years. The results will help you decide how hot, cold, wet, or windy it might be!

Date:

Astronomy

May. 26, 2013 Rise Set
Actual Time 6:03 AM EDT 8:17 PM EDT
Civil Twilight 5:35 AM EDT 8:46 PM EDT
Nautical Twilight 5:00 AM EDT 9:21 PM EDT
Astronomical Twilight 4:22 AM EDT 9:59 PM EDT
Moon 10:04 PM EDT (5/26) 7:30 AM EDT (5/26)
Length of Visible Light 15h 10m
Length of Day
14h 13m
Waning Gibbous, 97% of the Moon is Illuminated
May 26
Waning Gibbous
May 31
Last Quarter
Jun 8
New
Jun 16
First Quarter
Jun 23
Full

Hourly Weather History & Observations

Time (EDT) Temp. Dew Point Humidity Pressure Visibility Wind Dir Wind Speed Gust Speed Precip Events Conditions
12:15 AM 57.7 °F 47.8 °F 70% 30.18 in 10.0 mi Calm Calm - N/A   Clear
12:35 AM 57.4 °F 48.0 °F 71% 30.18 in 10.0 mi Calm Calm - N/A   Clear
12:55 AM 55.8 °F 48.7 °F 77% 30.17 in 10.0 mi Calm Calm - N/A   Clear
1:15 AM 55.6 °F 48.2 °F 76% 30.17 in 10.0 mi Calm Calm - N/A   Clear
1:35 AM 57.0 °F 47.3 °F 70% 30.17 in 10.0 mi Calm Calm - N/A   Clear
1:55 AM 56.1 °F 47.5 °F 73% 30.17 in 10.0 mi North 4.6 mph - N/A   Clear
2:15 AM 55.9 °F 47.1 °F 72% 30.17 in 10.0 mi Calm Calm - N/A   Clear
2:35 AM 55.9 °F 47.5 °F 73% 30.17 in 10.0 mi Calm Calm - N/A   Clear
2:55 AM 55.0 °F 48.0 °F 77% 30.17 in 10.0 mi Calm Calm - N/A   Clear
3:15 AM 55.6 °F 47.1 °F 73% 30.17 in 10.0 mi Calm Calm - N/A   Clear
3:35 AM 56.1 °F 48.6 °F 76% 30.17 in 10.0 mi Calm Calm - N/A   Clear
3:55 AM 56.5 °F 47.5 °F 72% 30.17 in 10.0 mi Calm Calm - N/A   Clear
4:15 AM 55.8 °F 48.7 °F 77% 30.17 in 10.0 mi Calm Calm - N/A   Clear
4:35 AM 55.9 °F 48.0 °F 75% 30.18 in 10.0 mi Calm Calm - N/A   Clear
4:55 AM 55.6 °F 47.7 °F 75% 30.18 in 10.0 mi Calm Calm - N/A   Clear
5:15 AM 54.7 °F 47.7 °F 77% 30.18 in 10.0 mi Calm Calm - N/A   Scattered Clouds
5:35 AM 55.6 °F 47.3 °F 74% 30.19 in 10.0 mi Calm Calm - N/A   Overcast
5:55 AM 55.9 °F 47.1 °F 72% 30.19 in 10.0 mi Calm Calm - N/A   Overcast
6:15 AM 55.8 °F 46.2 °F 70% 30.20 in 10.0 mi Calm Calm - N/A   Overcast
6:35 AM 56.3 °F 45.5 °F 67% 30.22 in 10.0 mi Calm Calm - N/A   Overcast
6:55 AM 56.3 °F 44.8 °F 65% 30.22 in 10.0 mi Calm Calm - N/A   Overcast
7:15 AM 55.6 °F 44.8 °F 67% 30.22 in 10.0 mi NNW 3.5 mph - N/A   Mostly Cloudy
7:35 AM 56.1 °F 44.8 °F 66% 30.24 in 10.0 mi Calm Calm - N/A   Overcast
7:55 AM 56.3 °F 44.4 °F 64% 30.24 in 10.0 mi Calm Calm - N/A   Overcast
8:15 AM 56.3 °F 45.3 °F 67% 30.24 in 10.0 mi Calm Calm - N/A   Overcast
8:35 AM 56.7 °F 46.2 °F 68% 30.26 in 10.0 mi NNW 3.5 mph - N/A   Overcast
8:55 AM 56.8 °F 46.0 °F 67% 30.26 in 10.0 mi Calm Calm - N/A   Overcast
9:15 AM 57.4 °F 45.9 °F 65% 30.27 in 10.0 mi Calm Calm - N/A   Overcast
9:35 AM 58.1 °F 46.0 °F 64% 30.28 in 10.0 mi NW 4.6 mph - N/A   Overcast
9:55 AM 58.5 °F 46.6 °F 65% 30.29 in 10.0 mi NW 5.8 mph - N/A   Overcast
10:15 AM 59.4 °F 47.3 °F 64% 30.28 in 10.0 mi Calm Calm - N/A   Overcast
10:35 AM 61.2 °F 47.1 °F 60% 30.27 in 10.0 mi Calm Calm - N/A   Overcast
10:55 AM 62.8 °F 46.6 °F 55% 30.27 in 10.0 mi North 3.5 mph - N/A   Overcast
11:15 AM 64.4 °F 45.0 °F 49% 30.26 in 10.0 mi Calm Calm - N/A   Mostly Cloudy
11:35 AM 65.8 °F 44.1 °F 45% 30.26 in 10.0 mi ENE 3.5 mph - N/A   Scattered Clouds
11:55 AM 65.3 °F 43.7 °F 46% 30.27 in 10.0 mi Calm Calm - N/A   Overcast
12:15 PM 65.7 °F 44.1 °F 46% 30.26 in 10.0 mi Calm Calm - N/A   Overcast
12:35 PM 66.9 °F 43.5 °F 43% 30.26 in 10.0 mi Calm Calm - N/A   Overcast
12:55 PM 67.8 °F 42.1 °F 39% 30.25 in 10.0 mi East 5.8 mph - N/A   Overcast
1:15 PM 68.2 °F 42.4 °F 39% 30.24 in 10.0 mi Calm Calm - N/A   Mostly Cloudy
1:35 PM 68.0 °F 41.9 °F 39% 30.24 in 10.0 mi Calm Calm - N/A   Mostly Cloudy
1:55 PM 69.4 °F 42.6 °F 38% 30.24 in 10.0 mi Calm Calm - N/A   Overcast
2:15 PM 68.2 °F 44.1 °F 42% 30.24 in 10.0 mi Calm Calm - N/A   Overcast
2:35 PM 68.2 °F 43.2 °F 40% 30.23 in 10.0 mi Calm Calm - N/A   Overcast
2:55 PM 68.9 °F 44.4 °F 41% 30.22 in 10.0 mi Calm Calm - N/A   Overcast
3:15 PM 69.4 °F 44.6 °F 41% 30.22 in 10.0 mi Calm Calm - N/A   Overcast
3:35 PM 68.9 °F 45.5 °F 43% 30.21 in 10.0 mi Calm Calm - N/A   Overcast
3:55 PM 69.8 °F 45.7 °F 42% 30.21 in 10.0 mi NW 3.5 mph - N/A   Overcast
4:15 PM 68.4 °F 47.1 °F 47% 30.21 in 10.0 mi Calm Calm - N/A   Overcast
4:35 PM 68.9 °F 47.5 °F 46% 30.21 in 10.0 mi Calm Calm - N/A   Overcast
4:55 PM 69.8 °F 46.6 °F 43% 30.21 in 10.0 mi Calm Calm - N/A   Overcast
5:15 PM 71.2 °F 44.2 °F 38% 30.20 in 10.0 mi Calm Calm - N/A   Scattered Clouds
5:35 PM 71.8 °F 44.8 °F 38% 30.19 in 10.0 mi Calm Calm - N/A   Scattered Clouds
5:55 PM 71.2 °F 48.0 °F 44% 30.19 in 10.0 mi Calm Calm - N/A   Scattered Clouds
6:15 PM 72.1 °F 47.5 °F 41% 30.19 in 10.0 mi Calm Calm - N/A   Clear
6:35 PM 72.1 °F 46.4 °F 40% 30.19 in 10.0 mi SW 3.5 mph - N/A   Clear
6:55 PM 72.1 °F 45.7 °F 39% 30.19 in 10.0 mi Calm Calm - N/A   Clear
7:15 PM 71.6 °F 46.9 °F 41% 30.19 in 10.0 mi Calm Calm - N/A   Clear
7:35 PM 71.4 °F 48.4 °F 44% 30.20 in 10.0 mi Calm Calm - N/A   Clear
7:55 PM 69.8 °F 50.9 °F 51% 30.20 in 10.0 mi Calm Calm - N/A   Clear
8:15 PM 66.2 °F 51.6 °F 59% 30.21 in 10.0 mi Calm Calm - N/A   Clear
8:35 PM 64.4 °F 52.5 °F 65% 30.21 in 10.0 mi Calm Calm - N/A   Clear
8:55 PM 62.8 °F 52.3 °F 69% 30.21 in 10.0 mi Calm Calm - N/A   Clear
9:15 PM 62.4 °F 52.7 °F 70% 30.21 in 10.0 mi Calm Calm - N/A   Clear
9:35 PM 61.0 °F 51.8 °F 72% 30.21 in 10.0 mi Calm Calm - N/A   Clear
9:55 PM 59.5 °F 52.2 °F 77% 30.22 in 10.0 mi Calm Calm - N/A   Clear
10:15 PM 59.4 °F 51.6 °F 76% 30.23 in 10.0 mi Calm Calm - N/A   Clear
10:35 PM 58.8 °F 52.3 °F 79% 30.23 in 10.0 mi Calm Calm - N/A   Clear
10:55 PM 58.1 °F 51.8 °F 80% 30.23 in 10.0 mi Calm Calm - N/A   Clear
11:15 PM 57.6 °F 51.1 °F 79% 30.24 in 10.0 mi Calm Calm - N/A   Clear
11:35 PM 56.7 °F 51.1 °F 82% 30.24 in 10.0 mi Calm Calm - N/A   Clear
11:55 PM 56.5 °F 50.9 °F 82% 30.24 in 10.0 mi Calm Calm - N/A   Clear